Time,TemperatureF,DewpointF,PressureIn,WindDirection,WindDirectionDegrees,WindSpeedMPH,WindSpeedGustMPH,Humidity,HourlyPrecipIn,Conditions,Clouds,dailyrainin,SoftwareType,DateUTC
2013-01-13 00:01:00,35.9,28.0,28.52,NNW,337,4.2,-999.0,70,0.00,,,0.00,Rainwise IP-100,2013-01-13 06:01:00,
2013-01-13 00:06:00,35.8,26.0,28.52,WNW,292,7.9,-999.0,69,0.00,,,0.00,Rainwise IP-100,2013-01-13 06:06:00,
2013-01-13 00:11:00,35.7,26.0,28.52,NW,315,5.8,-999.0,69,0.00,,,0.00,Rainwise IP-100,2013-01-13 06:11:00,
2013-01-13 00:16:00,35.7,26.0,28.52,NNW,337,5.1,-999.0,68,0.00,,,0.00,Rainwise IP-100,2013-01-13 06:16:00,
2013-01-13 00:21:00,35.6,26.0,28.52,NW,315,5.1,-999.0,68,0.00,,,0.00,Rainwise IP-100,2013-01-13 06:21:00,
2013-01-13 00:26:00,35.6,26.0,28.53,NNW,337,7.5,-999.0,68,0.00,,,0.00,Rainwise IP-100,2013-01-13 06:26:00,
2013-01-13 00:31:00,35.6,26.0,28.53,NW,315,4.7,-999.0,68,0.00,,,0.00,Rainwise IP-100,2013-01-13 06:31:00,
2013-01-13 00:36:00,35.6,26.0,28.53,NW,315,4.4,-999.0,67,0.00,,,0.00,Rainwise IP-100,2013-01-13 06:36:00,
2013-01-13 00:41:00,35.6,26.0,28.53,WNW,292,4.0,-999.0,67,0.00,,,0.00,Rainwise IP-100,2013-01-13 06:41:00,
2013-01-13 00:46:00,35.6,26.0,28.53,WNW,292,6.3,-999.0,67,0.00,,,0.00,Rainwise IP-100,2013-01-13 06:46:00,
2013-01-13 00:51:00,35.6,26.0,28.54,NW,315,6.8,-999.0,67,0.00,,,0.00,Rainwise IP-100,2013-01-13 06:51:00,
2013-01-13 00:56:00,35.6,26.0,28.54,WNW,292,7.2,-999.0,67,0.00,,,0.00,Rainwise IP-100,2013-01-13 06:56:00,
2013-01-13 01:01:00,35.6,26.0,28.54,NNW,337,9.3,-999.0,67,0.00,,,0.00,Rainwise IP-100,2013-01-13 07:01:00,
2013-01-13 01:06:00,35.5,26.0,28.55,NNW,337,7.0,-999.0,67,0.00,,,0.00,Rainwise IP-100,2013-01-13 07:06:00,
2013-01-13 01:11:00,35.4,24.0,28.55,NW,315,2.3,-999.0,66,0.00,,,0.00,Rainwise IP-100,2013-01-13 07:11:00,
2013-01-13 01:16:00,35.4,24.0,28.56,NW,315,13.1,-999.0,66,0.00,,,0.00,Rainwise IP-100,2013-01-13 07:16:00,
2013-01-13 01:21:00,35.3,24.0,28.56,NW,315,6.5,-999.0,66,0.00,,,0.00,Rainwise IP-100,2013-01-13 07:21:00,
2013-01-13 01:26:00,35.1,24.0,28.55,NNE,22,5.8,-999.0,65,0.00,,,0.00,Rainwise IP-100,2013-01-13 07:26:00,
2013-01-13 01:31:00,34.9,24.0,28.56,NNW,337,3.3,-999.0,65,0.00,,,0.00,Rainwise IP-100,2013-01-13 07:31:00,
2013-01-13 01:36:00,34.9,24.0,28.56,NNW,337,6.5,-999.0,65,0.00,,,0.00,Rainwise IP-100,2013-01-13 07:36:00,
2013-01-13 01:41:00,34.8,24.0,28.56,NW,315,2.8,-999.0,65,0.00,,,0.00,Rainwise IP-100,2013-01-13 07:41:00,
2013-01-13 01:46:00,34.7,24.0,28.56,NNW,337,7.5,-999.0,65,0.00,,,0.00,Rainwise IP-100,2013-01-13 07:46:00,
2013-01-13 01:51:00,34.7,24.0,28.56,NNW,337,9.6,-999.0,66,0.00,,,0.00,Rainwise IP-100,2013-01-13 07:51:00,
2013-01-13 01:56:00,34.7,24.0,28.57,NNW,337,5.4,-999.0,66,0.00,,,0.00,Rainwise IP-100,2013-01-13 07:56:00,
2013-01-13 02:01:00,34.6,24.0,28.57,North,360,9.3,-999.0,66,0.00,,,0.00,Rainwise IP-100,2013-01-13 08:01:00,
2013-01-13 02:06:00,34.4,24.0,28.56,NNW,337,6.8,-999.0,66,0.00,,,0.00,Rainwise IP-100,2013-01-13 08:06:00,
2013-01-13 02:11:00,34.2,24.0,28.57,North,360,8.4,-999.0,66,0.00,,,0.00,Rainwise IP-100,2013-01-13 08:11:00,
2013-01-13 02:16:00,34.1,24.0,28.57,NNW,337,4.4,-999.0,66,0.00,,,0.00,Rainwise IP-100,2013-01-13 08:16:00,
2013-01-13 02:21:00,33.9,24.0,28.57,NW,315,12.4,-999.0,66,0.00,,,0.00,Rainwise IP-100,2013-01-13 08:21:00,
2013-01-13 02:26:00,33.8,24.0,28.57,NNE,22,2.6,-999.0,66,0.00,,,0.00,Rainwise IP-100,2013-01-13 08:26:00,
2013-01-13 02:31:00,33.8,24.0,28.57,NNW,337,3.7,-999.0,67,0.00,,,0.00,Rainwise IP-100,2013-01-13 08:31:00,
2013-01-13 02:36:00,33.8,24.0,28.57,North,360,7.5,-999.0,67,0.00,,,0.00,Rainwise IP-100,2013-01-13 08:36:00,
2013-01-13 02:41:00,33.7,26.0,28.57,NW,315,6.8,-999.0,68,0.00,,,0.00,Rainwise IP-100,2013-01-13 08:41:00,
2013-01-13 02:46:00,33.7,26.0,28.56,NNE,22,1.9,-999.0,68,0.00,,,0.00,Rainwise IP-100,2013-01-13 08:46:00,
2013-01-13 02:51:00,33.6,24.0,28.57,NW,315,4.7,-999.0,67,0.00,,,0.00,Rainwise IP-100,2013-01-13 08:51:00,
2013-01-13 02:53:00,33.5,24.0,28.57,NW,315,7.9,-999.0,67,0.00,,,0.00,Rainwise IP-100,2013-01-13 08:53:00,
2013-01-13 02:58:00,33.5,24.0,28.57,WNW,292,9.1,-999.0,67,0.00,,,0.00,Rainwise IP-100,2013-01-13 08:58:00,
2013-01-13 03:03:00,33.4,24.0,28.57,North,360,5.1,-999.0,67,0.00,,,0.00,Rainwise IP-100,2013-01-13 09:03:00,
2013-01-13 03:08:00,33.3,24.0,28.57,North,360,6.8,-999.0,66,0.00,,,0.00,Rainwise IP-100,2013-01-13 09:08:00,
2013-01-13 03:13:00,33.2,24.0,28.58,NNW,337,4.4,-999.0,66,0.00,,,0.00,Rainwise IP-100,2013-01-13 09:13:00,
2013-01-13 03:18:00,33.1,24.0,28.58,North,360,5.1,-999.0,66,0.00,,,0.00,Rainwise IP-100,2013-01-13 09:18:00,
2013-01-13 03:23:00,33.2,24.0,28.58,NNW,337,6.3,-999.0,66,0.00,,,0.00,Rainwise IP-100,2013-01-13 09:23:00,
2013-01-13 03:28:00,33.1,24.0,28.58,NW,315,6.5,-999.0,66,0.00,,,0.00,Rainwise IP-100,2013-01-13 09:28:00,
2013-01-13 03:33:00,33.0,24.0,28.58,North,360,2.8,-999.0,66,0.00,,,0.00,Rainwise IP-100,2013-01-13 09:33:00,
2013-01-13 03:38:00,32.9,24.0,28.58,WNW,292,1.2,-999.0,67,0.00,,,0.00,Rainwise IP-100,2013-01-13 09:38:00,
2013-01-13 03:43:00,32.8,24.0,28.58,NNW,337,7.0,-999.0,67,0.00,,,0.00,Rainwise IP-100,2013-01-13 09:43:00,
2013-01-13 03:48:00,32.7,24.0,28.58,North,360,5.6,-999.0,67,0.00,,,0.00,Rainwise IP-100,2013-01-13 09:48:00,
2013-01-13 03:53:00,32.6,24.0,28.58,NNW,337,3.5,-999.0,67,0.00,,,0.00,Rainwise IP-100,2013-01-13 09:53:00,
2013-01-13 03:58:00,32.5,24.0,28.58,NW,315,2.1,-999.0,67,0.00,,,0.00,Rainwise IP-100,2013-01-13 09:58:00,
2013-01-13 04:03:00,32.4,23.0,28.58,NNW,337,7.2,-999.0,66,0.00,,,0.00,Rainwise IP-100,2013-01-13 10:03:00,
2013-01-13 04:08:00,32.3,23.0,28.58,WSW,247,0.0,-999.0,66,0.00,,,0.00,Rainwise IP-100,2013-01-13 10:08:00,
2013-01-13 04:13:00,32.2,23.0,28.58,NNW,337,7.0,-999.0,66,0.00,,,0.00,Rainwise IP-100,2013-01-13 10:13:00,
2013-01-13 04:18:00,32.1,23.0,28.59,NW,315,4.4,-999.0,66,0.00,,,0.00,Rainwise IP-100,2013-01-13 10:18:00,
2013-01-13 04:23:00,32.0,23.0,28.58,NNW,337,3.7,-999.0,66,0.00,,,0.00,Rainwise IP-100,2013-01-13 10:23:00,
2013-01-13 04:28:00,31.9,23.0,28.59,NW,315,5.6,-999.0,66,0.00,,,0.00,Rainwise IP-100,2013-01-13 10:28:00,
2013-01-13 04:33:00,31.7,23.0,28.59,NNW,337,3.3,-999.0,67,0.00,,,0.00,Rainwise IP-100,2013-01-13 10:33:00,
2013-01-13 04:38:00,31.5,23.0,28.59,NW,315,4.2,-999.0,67,0.00,,,0.00,Rainwise IP-100,2013-01-13 10:38:00,
2013-01-13 04:43:00,31.2,23.0,28.59,NNW,337,2.6,-999.0,68,0.00,,,0.00,Rainwise IP-100,2013-01-13 10:43:00,
2013-01-13 04:48:00,31.0,23.0,28.60,NNW,337,3.0,-999.0,68,0.00,,,0.00,Rainwise IP-100,2013-01-13 10:48:00,
2013-01-13 04:53:00,30.9,23.0,28.60,NNW,337,2.3,-999.0,69,0.00,,,0.00,Rainwise IP-100,2013-01-13 10:53:00,
2013-01-13 04:58:00,30.8,23.0,28.59,WNW,292,0.0,-999.0,69,0.00,,,0.00,Rainwise IP-100,2013-01-13 10:58:00,
2013-01-13 05:03:00,30.6,23.0,28.60,North,360,3.7,-999.0,69,0.00,,,0.00,Rainwise IP-100,2013-01-13 11:03:00,
2013-01-13 05:08:00,30.6,23.0,28.60,NW,315,6.5,-999.0,69,0.00,,,0.00,Rainwise IP-100,2013-01-13 11:08:00,
2013-01-13 05:13:00,30.6,23.0,28.60,NW,315,2.8,-999.0,69,0.00,,,0.00,Rainwise IP-100,2013-01-13 11:13:00,
2013-01-13 05:18:00,30.6,23.0,28.60,NW,315,6.8,-999.0,69,0.00,,,0.00,Rainwise IP-100,2013-01-13 11:18:00,
2013-01-13 05:23:00,30.6,23.0,28.60,North,360,4.0,-999.0,70,0.00,,,0.00,Rainwise IP-100,2013-01-13 11:23:00,
2013-01-13 05:28:00,30.6,23.0,28.60,NW,315,4.9,-999.0,70,0.00,,,0.00,Rainwise IP-100,2013-01-13 11:28:00,
2013-01-13 05:33:00,30.6,23.0,28.60,NNW,337,3.0,-999.0,70,0.00,,,0.00,Rainwise IP-100,2013-01-13 11:33:00,
2013-01-13 05:38:00,30.5,23.0,28.61,NW,315,5.8,-999.0,70,0.00,,,0.00,Rainwise IP-100,2013-01-13 11:38:00,
2013-01-13 05:43:00,30.4,23.0,28.60,NNW,337,3.3,-999.0,70,0.00,,,0.00,Rainwise IP-100,2013-01-13 11:43:00,
2013-01-13 05:48:00,30.2,23.0,28.61,NW,315,3.3,-999.0,71,0.00,,,0.00,Rainwise IP-100,2013-01-13 11:48:00,
2013-01-13 05:53:00,30.1,23.0,28.62,NW,315,5.8,-999.0,71,0.00,,,0.00,Rainwise IP-100,2013-01-13 11:53:00,
2013-01-13 05:58:00,29.9,23.0,28.62,NW,315,5.8,-999.0,71,0.00,,,0.00,Rainwise IP-100,2013-01-13 11:58:00,
2013-01-13 06:03:00,29.7,23.0,28.62,NW,315,2.3,-999.0,71,0.00,,,0.00,Rainwise IP-100,2013-01-13 12:03:00,
2013-01-13 06:08:00,29.6,23.0,28.63,NW,315,4.9,-999.0,71,0.00,,,0.00,Rainwise IP-100,2013-01-13 12:08:00,
2013-01-13 06:13:00,29.5,23.0,28.63,NW,315,7.2,-999.0,71,0.00,,,0.00,Rainwise IP-100,2013-01-13 12:13:00,
2013-01-13 06:18:00,29.3,21.0,28.63,NNW,337,5.1,-999.0,70,0.00,,,0.00,Rainwise IP-100,2013-01-13 12:18:00,
2013-01-13 06:23:00,29.2,21.0,28.63,WNW,292,5.6,-999.0,70,0.00,,,0.00,Rainwise IP-100,2013-01-13 12:23:00,
2013-01-13 06:28:00,29.1,21.0,28.64,NW,315,3.3,-999.0,70,0.00,,,0.00,Rainwise IP-100,2013-01-13 12:28:00,
2013-01-13 06:33:00,29.0,21.0,28.65,NNW,337,5.4,-999.0,70,0.00,,,0.00,Rainwise IP-100,2013-01-13 12:33:00,
2013-01-13 06:38:00,28.8,21.0,28.65,NNW,337,3.7,-999.0,70,0.00,,,0.00,Rainwise IP-100,2013-01-13 12:38:00,
2013-01-13 06:43:00,28.6,21.0,28.65,NW,315,8.6,-999.0,70,0.00,,,0.00,Rainwise IP-100,2013-01-13 12:43:00,
2013-01-13 06:48:00,28.6,21.0,28.66,NW,315,7.0,-999.0,71,0.00,,,0.00,Rainwise IP-100,2013-01-13 12:48:00,
2013-01-13 06:53:00,28.5,21.0,28.66,NNW,337,6.1,-999.0,71,0.00,,,0.00,Rainwise IP-100,2013-01-13 12:53:00,
2013-01-13 06:58:00,28.5,21.0,28.66,NW,315,2.1,-999.0,71,0.00,,,0.00,Rainwise IP-100,2013-01-13 12:58:00,
2013-01-13 07:03:00,28.4,21.0,28.66,NW,315,8.2,-999.0,71,0.00,,,0.00,Rainwise IP-100,2013-01-13 13:03:00,
2013-01-13 07:08:00,28.3,21.0,28.66,North,360,3.7,-999.0,71,0.00,,,0.00,Rainwise IP-100,2013-01-13 13:08:00,
2013-01-13 07:13:00,28.2,21.0,28.67,NW,315,5.1,-999.0,71,0.00,,,0.00,Rainwise IP-100,2013-01-13 13:13:00,
2013-01-13 07:18:00,28.0,21.0,28.67,NNW,337,7.2,-999.0,71,0.00,,,0.00,Rainwise IP-100,2013-01-13 13:18:00,
2013-01-13 07:23:00,27.9,21.0,28.68,NNW,337,4.9,-999.0,72,0.00,,,0.00,Rainwise IP-100,2013-01-13 13:23:00,
2013-01-13 07:28:00,27.8,21.0,28.68,NW,315,5.8,-999.0,72,0.00,,,0.00,Rainwise IP-100,2013-01-13 13:28:00,
2013-01-13 07:33:00,27.6,21.0,28.68,NW,315,9.3,-999.0,73,0.00,,,0.00,Rainwise IP-100,2013-01-13 13:33:00,
2013-01-13 07:38:00,27.5,21.0,28.68,NNE,22,4.0,-999.0,73,0.00,,,0.00,Rainwise IP-100,2013-01-13 13:38:00,
2013-01-13 07:43:00,27.4,21.0,28.68,NNW,337,5.4,-999.0,73,0.00,,,0.00,Rainwise IP-100,2013-01-13 13:43:00,
2013-01-13 07:48:00,27.2,21.0,28.69,NW,315,7.5,-999.0,74,0.00,,,0.00,Rainwise IP-100,2013-01-13 13:48:00,
2013-01-13 07:53:00,27.1,21.0,28.69,NNW,337,3.7,-999.0,74,0.00,,,0.00,Rainwise IP-100,2013-01-13 13:53:00,
2013-01-13 07:58:00,27.1,21.0,28.69,NW,315,4.4,-999.0,74,0.00,,,0.00,Rainwise IP-100,2013-01-13 13:58:00,
2013-01-13 08:03:00,27.1,21.0,28.70,North,360,8.9,-999.0,74,0.00,,,0.00,Rainwise IP-100,2013-01-13 14:03:00,
2013-01-13 08:08:00,27.2,21.0,28.70,NW,315,4.0,-999.0,74,0.00,,,0.00,Rainwise IP-100,2013-01-13 14:08:00,
2013-01-13 08:13:00,27.4,21.0,28.71,NW,315,10.5,-999.0,74,0.00,,,0.00,Rainwise IP-100,2013-01-13 14:13:00,
2013-01-13 08:18:00,27.7,21.0,28.71,North,360,8.2,-999.0,74,0.00,,,0.00,Rainwise IP-100,2013-01-13 14:18:00,
2013-01-13 08:23:00,28.0,21.0,28.71,NW,315,6.1,-999.0,74,0.00,,,0.00,Rainwise IP-100,2013-01-13 14:23:00,
2013-01-13 08:28:00,28.1,21.0,28.71,NW,315,9.3,-999.0,73,0.00,,,0.00,Rainwise IP-100,2013-01-13 14:28:00,
2013-01-13 08:33:00,28.4,21.0,28.72,NW,315,8.6,-999.0,73,0.00,,,0.00,Rainwise IP-100,2013-01-13 14:33:00,
2013-01-13 08:38:00,28.5,23.0,28.72,NNW,337,12.1,-999.0,73,0.00,,,0.00,Rainwise IP-100,2013-01-13 14:38:00,
2013-01-13 08:43:00,28.7,23.0,28.72,NW,315,14.5,-999.0,72,0.00,,,0.00,Rainwise IP-100,2013-01-13 14:43:00,
2013-01-13 08:48:00,28.8,23.0,28.73,NW,315,9.3,-999.0,72,0.00,,,0.00,Rainwise IP-100,2013-01-13 14:48:00,
2013-01-13 08:53:00,29.0,23.0,28.73,WNW,292,8.4,-999.0,72,0.00,,,0.00,Rainwise IP-100,2013-01-13 14:53:00,
2013-01-13 08:58:00,29.3,21.0,28.74,North,360,4.2,-999.0,71,0.00,,,0.00,Rainwise IP-100,2013-01-13 14:58:00,
2013-01-13 09:03:00,29.7,23.0,28.74,NNW,337,6.1,-999.0,70,0.00,,,0.00,Rainwise IP-100,2013-01-13 15:03:00,
2013-01-13 09:08:00,29.8,23.0,28.73,NW,315,7.2,-999.0,70,0.00,,,0.00,Rainwise IP-100,2013-01-13 15:08:00,
2013-01-13 09:13:00,29.8,23.0,28.74,NW,315,7.7,-999.0,70,0.00,,,0.00,Rainwise IP-100,2013-01-13 15:13:00,
2013-01-13 09:18:00,30.1,23.0,28.74,NNW,337,9.3,-999.0,69,0.00,,,0.00,Rainwise IP-100,2013-01-13 15:18:00,
2013-01-13 09:23:00,30.3,23.0,28.75,NNW,337,3.0,-999.0,69,0.00,,,0.00,Rainwise IP-100,2013-01-13 15:23:00,
2013-01-13 09:28:00,30.6,23.0,28.75,NNW,337,4.2,-999.0,68,0.00,,,0.00,Rainwise IP-100,2013-01-13 15:28:00,
2013-01-13 09:33:00,31.0,23.0,28.75,North,360,10.0,-999.0,68,0.00,,,0.00,Rainwise IP-100,2013-01-13 15:33:00,
2013-01-13 09:38:00,31.1,21.0,28.76,North,360,6.8,-999.0,67,0.00,,,0.00,Rainwise IP-100,2013-01-13 15:38:00,
2013-01-13 09:43:00,31.2,21.0,28.76,WNW,292,6.5,-999.0,66,0.00,,,0.00,Rainwise IP-100,2013-01-13 15:43:00,
2013-01-13 09:48:00,31.6,23.0,28.76,NW,315,4.9,-999.0,66,0.00,,,0.00,Rainwise IP-100,2013-01-13 15:48:00,
2013-01-13 09:53:00,31.9,23.0,28.76,NW,315,4.7,-999.0,65,0.00,,,0.00,Rainwise IP-100,2013-01-13 15:53:00,
2013-01-13 09:58:00,32.1,23.0,28.76,WNW,292,5.8,-999.0,65,0.00,,,0.00,Rainwise IP-100,2013-01-13 15:58:00,
2013-01-13 10:03:00,32.3,23.0,28.76,North,360,5.6,-999.0,64,0.00,,,0.00,Rainwise IP-100,2013-01-13 16:03:00,
2013-01-13 10:08:00,32.8,23.0,28.76,NNW,337,8.4,-999.0,64,0.00,,,0.00,Rainwise IP-100,2013-01-13 16:08:00,
2013-01-13 10:13:00,33.3,23.0,28.76,NW,315,3.7,-999.0,64,0.00,,,0.00,Rainwise IP-100,2013-01-13 16:13:00,
2013-01-13 10:18:00,33.5,24.0,28.76,North,360,9.3,-999.0,63,0.00,,,0.00,Rainwise IP-100,2013-01-13 16:18:00,
2013-01-13 10:23:00,33.7,23.0,28.76,NNW,337,8.9,-999.0,62,0.00,,,0.00,Rainwise IP-100,2013-01-13 16:23:00,
2013-01-13 10:28:00,33.9,23.0,28.76,NW,315,4.9,-999.0,62,0.00,,,0.00,Rainwise IP-100,2013-01-13 16:28:00,
2013-01-13 10:33:00,34.0,23.0,28.76,NNW,337,5.4,-999.0,62,0.00,,,0.00,Rainwise IP-100,2013-01-13 16:33:00,
2013-01-13 10:38:00,34.2,23.0,28.76,WNW,292,4.9,-999.0,62,0.00,,,0.00,Rainwise IP-100,2013-01-13 16:38:00,
2013-01-13 10:43:00,34.3,23.0,28.76,NW,315,4.0,-999.0,62,0.00,,,0.00,Rainwise IP-100,2013-01-13 16:43:00,
2013-01-13 10:48:00,34.4,23.0,28.76,NW,315,11.0,-999.0,62,0.00,,,0.00,Rainwise IP-100,2013-01-13 16:48:00,
2013-01-13 10:53:00,34.6,23.0,28.76,NW,315,6.1,-999.0,62,0.00,,,0.00,Rainwise IP-100,2013-01-13 16:53:00,
2013-01-13 10:58:00,34.9,23.0,28.76,NNE,22,5.8,-999.0,62,0.00,,,0.00,Rainwise IP-100,2013-01-13 16:58:00,
2013-01-13 11:03:00,35.0,24.0,28.76,NNW,337,9.1,-999.0,63,0.00,,,0.00,Rainwise IP-100,2013-01-13 17:03:00,
2013-01-13 11:08:00,35.3,24.0,28.76,NW,315,5.4,-999.0,63,0.00,,,0.00,Rainwise IP-100,2013-01-13 17:08:00,
2013-01-13 11:13:00,35.3,23.0,28.75,WNW,292,3.3,-999.0,62,0.00,,,0.00,Rainwise IP-100,2013-01-13 17:13:00,
2013-01-13 11:18:00,35.4,23.0,28.75,North,360,3.5,-999.0,62,0.00,,,0.00,Rainwise IP-100,2013-01-13 17:18:00,
2013-01-13 11:23:00,35.9,24.0,28.75,NW,315,6.3,-999.0,62,0.00,,,0.00,Rainwise IP-100,2013-01-13 17:23:00,
2013-01-13 11:28:00,36.2,24.0,28.75,NNE,22,9.8,-999.0,62,0.00,,,0.00,Rainwise IP-100,2013-01-13 17:28:00,
2013-01-13 11:33:00,36.3,24.0,28.75,North,360,4.0,-999.0,61,0.00,,,0.00,Rainwise IP-100,2013-01-13 17:33:00,
2013-01-13 11:38:00,36.5,24.0,28.74,NNW,337,6.1,-999.0,61,0.00,,,0.00,Rainwise IP-100,2013-01-13 17:38:00,
2013-01-13 11:43:00,36.7,24.0,28.74,NW,315,9.8,-999.0,61,0.00,,,0.00,Rainwise IP-100,2013-01-13 17:43:00,
2013-01-13 11:48:00,36.9,24.0,28.73,NNW,337,5.6,-999.0,60,0.00,,,0.00,Rainwise IP-100,2013-01-13 17:48:00,
2013-01-13 11:53:00,37.1,24.0,28.73,North,360,5.6,-999.0,60,0.00,,,0.00,Rainwise IP-100,2013-01-13 17:53:00,
2013-01-13 11:58:00,37.3,24.0,28.73,NNW,337,5.1,-999.0,60,0.00,,,0.00,Rainwise IP-100,2013-01-13 17:58:00,
2013-01-13 12:03:00,37.4,24.0,28.72,WNW,292,4.7,-999.0,59,0.00,,,0.00,Rainwise IP-100,2013-01-13 18:03:00,
2013-01-13 12:08:00,37.7,26.0,28.73,NW,315,2.3,-999.0,59,0.00,,,0.00,Rainwise IP-100,2013-01-13 18:08:00,
2013-01-13 12:13:00,38.2,26.0,28.72,NW,315,3.7,-999.0,59,0.00,,,0.00,Rainwise IP-100,2013-01-13 18:13:00,
2013-01-13 12:18:00,38.5,26.0,28.72,NNE,22,7.5,-999.0,58,0.00,,,0.00,Rainwise IP-100,2013-01-13 18:18:00,
2013-01-13 12:23:00,38.8,26.0,28.72,NNW,337,5.4,-999.0,57,0.00,,,0.00,Rainwise IP-100,2013-01-13 18:23:00,
2013-01-13 12:28:00,38.9,26.0,28.71,NW,315,11.9,-999.0,57,0.00,,,0.00,Rainwise IP-100,2013-01-13 18:28:00,
2013-01-13 12:33:00,38.7,26.0,28.71,NW,315,9.6,-999.0,57,0.00,,,0.00,Rainwise IP-100,2013-01-13 18:33:00,
2013-01-13 12:38:00,38.9,26.0,28.71,NNW,337,4.4,-999.0,57,0.00,,,0.00,Rainwise IP-100,2013-01-13 18:38:00,
2013-01-13 12:43:00,39.5,26.0,28.71,NNE,22,7.5,-999.0,57,0.00,,,0.00,Rainwise IP-100,2013-01-13 18:43:00,
2013-01-13 12:48:00,39.9,26.0,28.70,NNW,337,7.5,-999.0,56,0.00,,,0.00,Rainwise IP-100,2013-01-13 18:48:00,
2013-01-13 12:53:00,40.2,26.0,28.70,North,360,4.7,-999.0,55,0.00,,,0.00,Rainwise IP-100,2013-01-13 18:53:00,
2013-01-13 12:58:00,40.4,26.0,28.70,North,360,3.5,-999.0,54,0.00,,,0.00,Rainwise IP-100,2013-01-13 18:58:00,
2013-01-13 13:03:00,40.4,26.0,28.70,NNW,337,6.3,-999.0,54,0.00,,,0.00,Rainwise IP-100,2013-01-13 19:03:00,
2013-01-13 13:08:00,40.7,26.0,28.69,NNW,337,4.2,-999.0,54,0.00,,,0.00,Rainwise IP-100,2013-01-13 19:08:00,
2013-01-13 13:13:00,41.3,26.0,28.69,NW,315,4.9,-999.0,53,0.00,,,0.00,Rainwise IP-100,2013-01-13 19:13:00,
2013-01-13 13:18:00,41.6,26.0,28.68,WNW,292,2.6,-999.0,52,0.00,,,0.00,Rainwise IP-100,2013-01-13 19:18:00,
2013-01-13 13:23:00,41.8,26.0,28.68,North,360,8.9,-999.0,52,0.00,,,0.00,Rainwise IP-100,2013-01-13 19:23:00,
2013-01-13 13:28:00,42.1,26.0,28.68,NW,315,9.3,-999.0,51,0.00,,,0.00,Rainwise IP-100,2013-01-13 19:28:00,
2013-01-13 13:33:00,42.3,26.0,28.68,NNE,22,10.0,-999.0,50,0.00,,,0.00,Rainwise IP-100,2013-01-13 19:33:00,
2013-01-13 13:38:00,42.6,26.0,28.69,NNW,337,7.2,-999.0,50,0.00,,,0.00,Rainwise IP-100,2013-01-13 19:38:00,
2013-01-13 13:43:00,42.8,26.0,28.68,NNE,22,10.5,-999.0,49,0.00,,,0.00,Rainwise IP-100,2013-01-13 19:43:00,
2013-01-13 13:48:00,42.8,26.0,28.68,NE,45,6.5,-999.0,49,0.00,,,0.00,Rainwise IP-100,2013-01-13 19:48:00,
2013-01-13 13:53:00,43.1,26.0,28.68,NNE,22,3.5,-999.0,49,0.00,,,0.00,Rainwise IP-100,2013-01-13 19:53:00,
2013-01-13 13:58:00,43.5,26.0,28.68,North,360,4.9,-999.0,48,0.00,,,0.00,Rainwise IP-100,2013-01-13 19:58:00,
2013-01-13 14:03:00,43.7,26.0,28.68,NW,315,5.4,-999.0,48,0.00,,,0.00,Rainwise IP-100,2013-01-13 20:03:00,
2013-01-13 14:08:00,43.8,26.0,28.67,NNW,337,6.1,-999.0,48,0.00,,,0.00,Rainwise IP-100,2013-01-13 20:08:00,
2013-01-13 14:13:00,44.0,26.0,28.68,NNW,337,6.3,-999.0,47,0.00,,,0.00,Rainwise IP-100,2013-01-13 20:13:00,
2013-01-13 14:18:00,44.2,26.0,28.68,North,360,8.9,-999.0,47,0.00,,,0.00,Rainwise IP-100,2013-01-13 20:18:00,
2013-01-13 14:23:00,44.2,24.0,28.68,North,360,6.1,-999.0,46,0.00,,,0.00,Rainwise IP-100,2013-01-13 20:23:00,
2013-01-13 14:28:00,44.2,24.0,28.68,NNE,22,8.2,-999.0,46,0.00,,,0.00,Rainwise IP-100,2013-01-13 20:28:00,
2013-01-13 14:33:00,44.2,24.0,28.68,North,360,6.3,-999.0,45,0.00,,,0.00,Rainwise IP-100,2013-01-13 20:33:00,
2013-01-13 14:38:00,43.9,24.0,28.67,NNE,22,7.7,-999.0,44,0.00,,,0.00,Rainwise IP-100,2013-01-13 20:38:00,
2013-01-13 14:43:00,44.0,24.0,28.68,NNE,22,6.1,-999.0,44,0.00,,,0.00,Rainwise IP-100,2013-01-13 20:43:00,
2013-01-13 14:48:00,44.3,23.0,28.67,NNE,22,5.1,-999.0,43,0.00,,,0.00,Rainwise IP-100,2013-01-13 20:48:00,
2013-01-13 14:53:00,44.2,23.0,28.68,North,360,6.8,-999.0,43,0.00,,,0.00,Rainwise IP-100,2013-01-13 20:53:00,
2013-01-13 14:58:00,43.9,23.0,28.68,NW,315,4.9,-999.0,43,0.00,,,0.00,Rainwise IP-100,2013-01-13 20:58:00,
2013-01-13 15:03:00,43.9,23.0,28.68,NNE,22,11.9,-999.0,43,0.00,,,0.00,Rainwise IP-100,2013-01-13 21:03:00,
2013-01-13 15:08:00,43.8,24.0,28.68,North,360,8.4,-999.0,44,0.00,,,0.00,Rainwise IP-100,2013-01-13 21:08:00,
2013-01-13 15:13:00,43.7,24.0,28.68,NNE,22,6.5,-999.0,44,0.00,,,0.00,Rainwise IP-100,2013-01-13 21:13:00,
2013-01-13 15:18:00,44.0,24.0,28.68,NNW,337,1.4,-999.0,44,0.00,,,0.00,Rainwise IP-100,2013-01-13 21:18:00,
2013-01-13 15:23:00,44.5,24.0,28.68,NNE,22,5.1,-999.0,44,0.00,,,0.00,Rainwise IP-100,2013-01-13 21:23:00,
2013-01-13 15:28:00,44.6,24.0,28.67,NW,315,7.5,-999.0,44,0.00,,,0.00,Rainwise IP-100,2013-01-13 21:28:00,
2013-01-13 15:33:00,44.5,24.0,28.68,NW,315,5.8,-999.0,43,0.00,,,0.00,Rainwise IP-100,2013-01-13 21:33:00,
2013-01-13 15:38:00,44.4,23.0,28.68,NNE,22,3.5,-999.0,43,0.00,,,0.00,Rainwise IP-100,2013-01-13 21:38:00,
2013-01-13 15:43:00,44.5,24.0,28.67,North,360,8.9,-999.0,43,0.00,,,0.00,Rainwise IP-100,2013-01-13 21:43:00,
2013-01-13 15:48:00,44.7,24.0,28.67,NNW,337,6.3,-999.0,43,0.00,,,0.00,Rainwise IP-100,2013-01-13 21:48:00,
2013-01-13 15:53:00,44.9,24.0,28.68,North,360,7.5,-999.0,43,0.00,,,0.00,Rainwise IP-100,2013-01-13 21:53:00,
2013-01-13 15:58:00,44.8,24.0,28.68,NW,315,8.2,-999.0,43,0.00,,,0.00,Rainwise IP-100,2013-01-13 21:58:00,
2013-01-13 16:03:00,44.4,23.0,28.69,North,360,4.7,-999.0,43,0.00,,,0.00,Rainwise IP-100,2013-01-13 22:03:00,
2013-01-13 16:08:00,44.3,23.0,28.68,North,360,7.2,-999.0,43,0.00,,,0.00,Rainwise IP-100,2013-01-13 22:08:00,
2013-01-13 16:13:00,44.2,23.0,28.69,North,360,7.5,-999.0,43,0.00,,,0.00,Rainwise IP-100,2013-01-13 22:13:00,
2013-01-13 16:18:00,44.0,23.0,28.69,NNE,22,5.1,-999.0,43,0.00,,,0.00,Rainwise IP-100,2013-01-13 22:18:00,
2013-01-13 16:23:00,43.9,24.0,28.69,NNE,22,6.3,-999.0,44,0.00,,,0.00,Rainwise IP-100,2013-01-13 22:23:00,
2013-01-13 16:28:00,43.8,24.0,28.69,NNE,22,3.3,-999.0,44,0.00,,,0.00,Rainwise IP-100,2013-01-13 22:28:00,
2013-01-13 16:33:00,43.9,24.0,28.69,NW,315,3.3,-999.0,44,0.00,,,0.00,Rainwise IP-100,2013-01-13 22:33:00,
2013-01-13 16:38:00,43.8,24.0,28.68,NNE,22,6.1,-999.0,44,0.00,,,0.00,Rainwise IP-100,2013-01-13 22:38:00,
2013-01-13 16:43:00,43.6,24.0,28.68,NNE,22,5.4,-999.0,44,0.00,,,0.00,Rainwise IP-100,2013-01-13 22:43:00,
2013-01-13 16:48:00,43.5,24.0,28.69,NNW,337,8.9,-999.0,45,0.00,,,0.00,Rainwise IP-100,2013-01-13 22:48:00,
2013-01-13 16:53:00,43.4,24.0,28.69,NNW,337,5.1,-999.0,45,0.00,,,0.00,Rainwise IP-100,2013-01-13 22:53:00,
2013-01-13 16:58:00,43.2,24.0,28.69,NNW,337,6.8,-999.0,45,0.00,,,0.00,Rainwise IP-100,2013-01-13 22:58:00,
2013-01-13 17:03:00,43.1,24.0,28.69,North,360,6.8,-999.0,45,0.00,,,0.00,Rainwise IP-100,2013-01-13 23:03:00,
2013-01-13 17:08:00,43.0,24.0,28.69,NNE,22,2.8,-999.0,46,0.00,,,0.00,Rainwise IP-100,2013-01-13 23:08:00,
2013-01-13 17:13:00,42.7,24.0,28.70,NNE,22,7.7,-999.0,46,0.00,,,0.00,Rainwise IP-100,2013-01-13 23:13:00,
2013-01-13 17:18:00,42.4,23.0,28.70,NNE,22,6.8,-999.0,46,0.00,,,0.00,Rainwise IP-100,2013-01-13 23:18:00,
2013-01-13 17:23:00,42.2,24.0,28.70,North,360,4.7,-999.0,47,0.00,,,0.00,Rainwise IP-100,2013-01-13 23:23:00,
2013-01-13 17:28:00,42.0,24.0,28.70,North,360,6.5,-999.0,47,0.00,,,0.00,Rainwise IP-100,2013-01-13 23:28:00,
2013-01-13 17:33:00,41.7,24.0,28.70,NNW,337,5.8,-999.0,47,0.00,,,0.00,Rainwise IP-100,2013-01-13 23:33:00,
2013-01-13 17:38:00,41.4,23.0,28.70,North,360,2.1,-999.0,48,0.00,,,0.00,Rainwise IP-100,2013-01-13 23:38:00,
2013-01-13 17:43:00,40.9,23.0,28.70,NNE,22,2.3,-999.0,48,0.00,,,0.00,Rainwise IP-100,2013-01-13 23:43:00,
2013-01-13 17:48:00,40.2,24.0,28.70,NNE,22,5.8,-999.0,50,0.00,,,0.00,Rainwise IP-100,2013-01-13 23:48:00,
2013-01-13 17:53:00,39.7,24.0,28.71,NE,45,0.0,-999.0,51,0.00,,,0.00,Rainwise IP-100,2013-01-13 23:53:00,
2013-01-13 17:58:00,39.3,23.0,28.70,NNE,22,2.3,-999.0,52,0.00,,,0.00,Rainwise IP-100,2013-01-13 23:58:00,
2013-01-13 18:03:00,38.9,24.0,28.70,North,360,2.3,-999.0,53,0.00,,,0.00,Rainwise IP-100,2013-01-14 00:03:00,
2013-01-13 18:08:00,38.5,24.0,28.70,NNW,337,1.9,-999.0,53,0.00,,,0.00,Rainwise IP-100,2013-01-14 00:08:00,
2013-01-13 18:13:00,38.1,23.0,28.70,North,360,2.3,-999.0,54,0.00,,,0.00,Rainwise IP-100,2013-01-14 00:13:00,
2013-01-13 18:18:00,37.6,24.0,28.70,NNE,22,1.2,-999.0,55,0.00,,,0.00,Rainwise IP-100,2013-01-14 00:18:00,
2013-01-13 18:23:00,37.3,23.0,28.70,North,360,1.6,-999.0,56,0.00,,,0.00,Rainwise IP-100,2013-01-14 00:23:00,
2013-01-13 18:28:00,37.1,23.0,28.71,North,360,1.9,-999.0,56,0.00,,,0.00,Rainwise IP-100,2013-01-14 00:28:00,
2013-01-13 18:33:00,36.9,23.0,28.71,NNE,22,1.6,-999.0,56,0.00,,,0.00,Rainwise IP-100,2013-01-14 00:33:00,
2013-01-13 18:38:00,36.6,24.0,28.71,NNW,337,2.6,-999.0,57,0.00,,,0.00,Rainwise IP-100,2013-01-14 00:38:00,
2013-01-13 18:43:00,36.5,24.0,28.71,NNW,337,1.2,-999.0,57,0.00,,,0.00,Rainwise IP-100,2013-01-14 00:43:00,
2013-01-13 18:48:00,36.2,23.0,28.71,North,360,1.2,-999.0,58,0.00,,,0.00,Rainwise IP-100,2013-01-14 00:48:00,
2013-01-13 18:53:00,35.8,23.0,28.71,NNW,337,1.9,-999.0,59,0.00,,,0.00,Rainwise IP-100,2013-01-14 00:53:00,
2013-01-13 18:58:00,35.6,24.0,28.71,NNW,337,0.0,-999.0,60,0.00,,,0.00,Rainwise IP-100,2013-01-14 00:58:00,
2013-01-13 19:03:00,35.5,24.0,28.71,North,360,2.3,-999.0,60,0.00,,,0.00,Rainwise IP-100,2013-01-14 01:03:00,
2013-01-13 19:08:00,35.3,23.0,28.71,NNW,337,0.0,-999.0,61,0.00,,,0.00,Rainwise IP-100,2013-01-14 01:08:00,
2013-01-13 19:13:00,35.0,23.0,28.72,NNW,337,0.0,-999.0,62,0.00,,,0.00,Rainwise IP-100,2013-01-14 01:13:00,
2013-01-13 19:18:00,34.6,24.0,28.72,North,360,1.6,-999.0,63,0.00,,,0.00,Rainwise IP-100,2013-01-14 01:18:00,
2013-01-13 19:23:00,34.2,24.0,28.71,North,360,2.1,-999.0,63,0.00,,,0.00,Rainwise IP-100,2013-01-14 01:23:00,
2013-01-13 19:28:00,34.1,24.0,28.71,North,360,1.9,-999.0,63,0.00,,,0.00,Rainwise IP-100,2013-01-14 01:28:00,
2013-01-13 19:33:00,34.3,24.0,28.71,NNW,337,2.3,-999.0,63,0.00,,,0.00,Rainwise IP-100,2013-01-14 01:33:00,
2013-01-13 19:38:00,34.4,24.0,28.71,NNW,337,2.8,-999.0,63,0.00,,,0.00,Rainwise IP-100,2013-01-14 01:38:00,
2013-01-13 19:43:00,34.3,24.0,28.71,NW,315,1.9,-999.0,63,0.00,,,0.00,Rainwise IP-100,2013-01-14 01:43:00,
2013-01-13 19:48:00,34.2,24.0,28.72,NNW,337,3.0,-999.0,63,0.00,,,0.00,Rainwise IP-100,2013-01-14 01:48:00,
2013-01-13 19:53:00,34.0,24.0,28.72,NNW,337,2.1,-999.0,63,0.00,,,0.00,Rainwise IP-100,2013-01-14 01:53:00,
2013-01-13 19:58:00,33.8,24.0,28.72,North,360,1.2,-999.0,63,0.00,,,0.00,Rainwise IP-100,2013-01-14 01:58:00,
2013-01-13 20:03:00,33.7,24.0,28.72,NNW,337,5.8,-999.0,63,0.00,,,0.00,Rainwise IP-100,2013-01-14 02:03:00,
2013-01-13 20:08:00,33.7,24.0,28.72,North,360,2.6,-999.0,63,0.00,,,0.00,Rainwise IP-100,2013-01-14 02:08:00,
2013-01-13 20:13:00,33.6,24.0,28.72,NNE,22,4.0,-999.0,63,0.00,,,0.00,Rainwise IP-100,2013-01-14 02:13:00,
2013-01-13 20:18:00,33.4,23.0,28.72,North,360,4.7,-999.0,63,0.00,,,0.00,Rainwise IP-100,2013-01-14 02:18:00,
2013-01-13 20:23:00,33.4,23.0,28.71,North,360,1.9,-999.0,63,0.00,,,0.00,Rainwise IP-100,2013-01-14 02:23:00,
2013-01-13 20:28:00,33.3,23.0,28.72,North,360,0.0,-999.0,63,0.00,,,0.00,Rainwise IP-100,2013-01-14 02:28:00,
2013-01-13 20:33:00,33.2,23.0,28.72,NNE,22,1.4,-999.0,63,0.00,,,0.00,Rainwise IP-100,2013-01-14 02:33:00,
2013-01-13 20:38:00,33.0,23.0,28.72,NNE,22,2.6,-999.0,63,0.00,,,0.00,Rainwise IP-100,2013-01-14 02:38:00,
2013-01-13 20:43:00,32.9,23.0,28.72,North,360,2.1,-999.0,64,0.00,,,0.00,Rainwise IP-100,2013-01-14 02:43:00,
2013-01-13 20:48:00,32.8,23.0,28.73,NNE,22,4.0,-999.0,64,0.00,,,0.00,Rainwise IP-100,2013-01-14 02:48:00,
2013-01-13 20:53:00,32.6,23.0,28.73,North,360,3.3,-999.0,64,0.00,,,0.00,Rainwise IP-100,2013-01-14 02:53:00,
2013-01-13 20:58:00,32.4,23.0,28.73,North,360,4.0,-999.0,65,0.00,,,0.00,Rainwise IP-100,2013-01-14 02:58:00,
2013-01-13 21:03:00,32.2,23.0,28.73,North,360,3.5,-999.0,65,0.00,,,0.00,Rainwise IP-100,2013-01-14 03:03:00,
2013-01-13 21:08:00,32.0,23.0,28.73,NNW,337,2.1,-999.0,65,0.00,,,0.00,Rainwise IP-100,2013-01-14 03:08:00,
2013-01-13 21:13:00,31.9,23.0,28.73,NNE,22,3.3,-999.0,66,0.00,,,0.00,Rainwise IP-100,2013-01-14 03:13:00,
2013-01-13 21:18:00,31.9,23.0,28.73,NNW,337,4.0,-999.0,66,0.00,,,0.00,Rainwise IP-100,2013-01-14 03:18:00,
2013-01-13 21:23:00,31.8,23.0,28.72,NE,45,5.1,-999.0,65,0.00,,,0.00,Rainwise IP-100,2013-01-14 03:23:00,
2013-01-13 21:28:00,31.8,23.0,28.73,North,360,4.2,-999.0,65,0.00,,,0.00,Rainwise IP-100,2013-01-14 03:28:00,
2013-01-13 21:33:00,31.6,23.0,28.72,North,360,2.1,-999.0,65,0.00,,,0.00,Rainwise IP-100,2013-01-14 03:33:00,
2013-01-13 21:38:00,31.5,23.0,28.72,North,360,3.5,-999.0,65,0.00,,,0.00,Rainwise IP-100,2013-01-14 03:38:00,
2013-01-13 21:43:00,31.2,21.0,28.73,NNE,22,4.7,-999.0,66,0.00,,,0.00,Rainwise IP-100,2013-01-14 03:43:00,
2013-01-13 21:48:00,31.1,21.0,28.73,North,360,1.2,-999.0,67,0.00,,,0.00,Rainwise IP-100,2013-01-14 03:48:00,
2013-01-13 21:53:00,31.0,21.0,28.73,North,360,2.6,-999.0,66,0.00,,,0.00,Rainwise IP-100,2013-01-14 03:53:00,
2013-01-13 21:58:00,31.0,21.0,28.73,North,360,4.9,-999.0,66,0.00,,,0.00,Rainwise IP-100,2013-01-14 03:58:00,
2013-01-13 22:03:00,30.9,21.0,28.74,NNE,22,3.0,-999.0,66,0.00,,,0.00,Rainwise IP-100,2013-01-14 04:03:00,
2013-01-13 22:08:00,30.8,21.0,28.74,North,360,4.9,-999.0,65,0.00,,,0.00,Rainwise IP-100,2013-01-14 04:08:00,
2013-01-13 22:13:00,30.8,21.0,28.74,North,360,5.8,-999.0,65,0.00,,,0.00,Rainwise IP-100,2013-01-14 04:13:00,
2013-01-13 22:18:00,30.7,21.0,28.74,NNW,337,7.0,-999.0,65,0.00,,,0.00,Rainwise IP-100,2013-01-14 04:18:00,
2013-01-13 22:23:00,30.6,21.0,28.74,North,360,3.7,-999.0,65,0.00,,,0.00,Rainwise IP-100,2013-01-14 04:23:00,
2013-01-13 22:28:00,30.5,21.0,28.74,NNW,337,3.7,-999.0,65,0.00,,,0.00,Rainwise IP-100,2013-01-14 04:28:00,
2013-01-13 22:33:00,30.4,21.0,28.75,North,360,1.9,-999.0,65,0.00,,,0.00,Rainwise IP-100,2013-01-14 04:33:00,
2013-01-13 22:38:00,30.4,21.0,28.74,NE,45,4.4,-999.0,65,0.00,,,0.00,Rainwise IP-100,2013-01-14 04:38:00,
2013-01-13 22:43:00,30.4,21.0,28.74,NNE,22,4.2,-999.0,64,0.00,,,0.00,Rainwise IP-100,2013-01-14 04:43:00,
2013-01-13 22:48:00,30.3,21.0,28.74,North,360,3.0,-999.0,64,0.00,,,0.00,Rainwise IP-100,2013-01-14 04:48:00,
2013-01-13 22:53:00,30.3,21.0,28.74,NNE,22,3.5,-999.0,64,0.00,,,0.00,Rainwise IP-100,2013-01-14 04:53:00,
2013-01-13 22:58:00,30.2,21.0,28.74,NNE,22,4.4,-999.0,64,0.00,,,0.00,Rainwise IP-100,2013-01-14 04:58:00,
2013-01-13 23:00:00,30.2,21.0,28.74,NNE,22,3.7,-999.0,64,0.00,,,0.00,Rainwise IP-100,2013-01-14 05:00:00,
2013-01-13 23:01:00,30.2,21.0,28.74,North,360,6.3,-999.0,64,0.00,,,0.00,Rainwise IP-100,2013-01-14 05:01:00,
2013-01-13 23:03:00,30.1,21.0,28.74,NNE,22,5.4,-999.0,64,0.00,,,0.00,Rainwise IP-100,2013-01-14 05:03:00,
2013-01-13 23:08:00,30.0,21.0,28.74,NE,45,8.4,-999.0,64,0.00,,,0.00,Rainwise IP-100,2013-01-14 05:08:00,
2013-01-13 23:13:00,30.0,21.0,28.74,NNE,22,6.3,-999.0,64,0.00,,,0.00,Rainwise IP-100,2013-01-14 05:13:00,
2013-01-13 23:18:00,30.0,21.0,28.74,NNE,22,4.0,-999.0,64,0.00,,,0.00,Rainwise IP-100,2013-01-14 05:18:00,
2013-01-13 23:23:00,29.8,21.0,28.74,NNE,22,2.3,-999.0,65,0.00,,,0.00,Rainwise IP-100,2013-01-14 05:23:00,
2013-01-13 23:28:00,29.7,21.0,28.73,NNE,22,3.0,-999.0,65,0.00,,,0.00,Rainwise IP-100,2013-01-14 05:28:00,
2013-01-13 23:33:00,29.5,21.0,28.74,NNW,337,5.8,-999.0,65,0.00,,,0.00,Rainwise IP-100,2013-01-14 05:33:00,
2013-01-13 23:38:00,29.4,18.0,28.74,North,360,4.4,-999.0,65,0.00,,,0.00,Rainwise IP-100,2013-01-14 05:38:00,
2013-01-13 23:43:00,29.4,18.0,28.74,NE,45,3.0,-999.0,65,0.00,,,0.00,Rainwise IP-100,2013-01-14 05:43:00,
2013-01-13 23:48:00,29.2,18.0,28.74,NNW,337,5.6,-999.0,65,0.00,,,0.00,Rainwise IP-100,2013-01-14 05:48:00,
2013-01-13 23:53:00,29.2,18.0,28.74,NNW,337,4.4,-999.0,64,0.00,,,0.00,Rainwise IP-100,2013-01-14 05:53:00,
2013-01-13 23:58:00,29.1,18.0,28.74,NNE,22,4.7,-999.0,64,0.00,,,0.00,Rainwise IP-100,2013-01-14 05:58:00,